sat.trackr.live / text

‹ back to catalog

STARLINK-30851

NORAD 58215 · 2023-170K

PAYLOAD ACTIVE UNKNOWN

§ Identity

Operator
Country
US
Launch date
2023-11-03
Launch site
AFETR
Launch vehicle
Mass (kg)
RCS (m²)

Purposes: comms

External: N2YO · Heavens-Above · Gunter

§ Orbital elements

Epoch: 2026-05-25T04:50:13.341120Z

Period
94.27 min
Inclination
43.0024°
Eccentricity
0.0001442
Mean motion
15.27579460 rev/d
Perigee alt
482.1 km
Apogee alt
484.0 km
Semi-major
6,861.2 km
B*
3.9696e-5
RAAN
121.8937°
Arg perigee
269.9091°
Mean anomaly
90.1595°
Rev number
14,200

§ Raw data

STARLINK-308511 58215U 23170K   26145.20154330  .00000830  00000+0  39696-4 0  99972 58215  43.0024 121.8937 0001442 269.9091  90.1595 15.27579460142006

JSON: /api/v1/satellites/58215 · /tle

For live sub-satellite position, see the globe view (requires WebGL).

§ Visibility from observer

Set your observer location to see the next 7 days of passes ≥ 10°. The values pass through the URL so the page stays shareable.

No JS? Fill the form by hand. The geolocation button needs JavaScript.